Previsão horária em Ali

Hoje, 19 Junho, Sábado

Tempo Temperatura Precipitação Vento Pressão Humidade
00:00 +19°C° 0 mm 2 m/s 707 mmHg 49%
01:00 +19°C° 0 mm 2 m/s 706 mmHg 46%
02:00 +19°C° 0 mm 2 m/s 706 mmHg 44%
03:00 +19°C° 0 mm 2 m/s 706 mmHg 42%
04:00 +19°C° 0 mm 2 m/s 706 mmHg 40%
05:00 +20°C° 0 mm 2 m/s 706 mmHg 37%
06:00 +24°C° 0 mm 2 m/s 706 mmHg 32%
07:00 +27°C° 0 mm 2 m/s 707 mmHg 27%
08:00 +30°C° 0 mm 2 m/s 707 mmHg 23%
09:00 +31°C° 0 mm 2 m/s 707 mmHg 20%
10:00 +34°C° 0 mm 2 m/s 706 mmHg 17%
11:00 +36°C° 0 mm 2 m/s 706 mmHg 14%
12:00 +35°C° 0 mm 4 m/s 706 mmHg 15%
13:00 +35°C° 0 mm 5 m/s 705 mmHg 16%
14:00 +35°C° 0 mm 7 m/s 705 mmHg 17%
15:00 +35°C° 0 mm 6 m/s 705 mmHg 17%
16:00 +34°C° 0 mm 5 m/s 705 mmHg 18%
17:00 +34°C° 0 mm 4 m/s 704 mmHg 19%
18:00 +29°C° 0.1 mm 4 m/s 706 mmHg 31%
19:00 +26°C° 0.1 mm 3 m/s 707 mmHg 43%
20:00 +21°C° 0.1 mm 2 m/s 708 mmHg 55%
21:00 +20°C° 0.1 mm 3 m/s 708 mmHg 60%
22:00 +20°C° 0.1 mm 3 m/s 708 mmHg 65%
23:00 +19°C° 0.1 mm 3 m/s 709 mmHg 70%

Amanhã, 20 Junho, Domingo

Tempo Temperatura Precipitação Vento Pressão Humidade
00:00 +18°C° 0 mm 4 m/s 709 mmHg 69%
01:00 +18°C° 0 mm 4 m/s 709 mmHg 67%
02:00 +17°C° 0 mm 5 m/s 709 mmHg 66%
03:00 +17°C° 0.1 mm 4 m/s 709 mmHg 66%
04:00 +16°C° 0.1 mm 3 m/s 710 mmHg 67%
05:00 +16°C° 0.1 mm 3 m/s 711 mmHg 67%
06:00 +16°C° 0 mm 3 m/s 711 mmHg 63%
07:00 +17°C° 0 mm 3 m/s 712 mmHg 58%
08:00 +17°C° 0 mm 3 m/s 712 mmHg 54%
09:00 +18°C° 0 mm 3 m/s 712 mmHg 48%
10:00 +19°C° 0 mm 2 m/s 713 mmHg 43%
11:00 +20°C° 0 mm 2 m/s 713 mmHg 38%
12:00 +23°C° 0 mm 2 m/s 712 mmHg 35%
13:00 +24°C° 0 mm 3 m/s 712 mmHg 32%
14:00 +26°C° 0 mm 3 m/s 712 mmHg 30%
15:00 +26°C° 0 mm 3 m/s 712 mmHg 29%
16:00 +26°C° 0 mm 3 m/s 712 mmHg 28%
17:00 +26°C° 0 mm 3 m/s 712 mmHg 27%
18:00 +24°C° 0 mm 3 m/s 712 mmHg 28%
19:00 +20°C° 0 mm 3 m/s 712 mmHg 30%
20:00 +18°C° 0 mm 3 m/s 712 mmHg 32%
21:00 +17°C° 0 mm 2 m/s 712 mmHg 33%
22:00 +16°C° 0 mm 2 m/s 711 mmHg 35%
23:00 +15°C° 0 mm 2 m/s 711 mmHg 36%

Depois de amanhã, 21 Junho, Segunda-feira

Tempo Temperatura Precipitação Vento Pressão Humidade
00:00 +14°C° 0 mm 1 m/s 711 mmHg 37%
01:00 +14°C° 0 mm 1 m/s 711 mmHg 38%
02:00 +13°C° 0 mm 1 m/s 710 mmHg 38%
03:00 +14°C° 0 mm 1 m/s 710 mmHg 37%
04:00 +14°C° 0 mm 1 m/s 710 mmHg 37%
05:00 +15°C° 0 mm 1 m/s 710 mmHg 36%
06:00 +18°C° 0 mm 1 m/s 710 mmHg 31%
07:00 +20°C° 0 mm 2 m/s 711 mmHg 26%
08:00 +24°C° 0 mm 3 m/s 711 mmHg 22%
09:00 +26°C° 0 mm 3 m/s 710 mmHg 21%
10:00 +28°C° 0 mm 2 m/s 710 mmHg 20%
11:00 +29°C° 0 mm 2 m/s 710 mmHg 19%
12:00 +30°C° 0 mm 2 m/s 709 mmHg 17%
13:00 +31°C° 0 mm 2 m/s 709 mmHg 16%
14:00 +32°C° 0 mm 2 m/s 708 mmHg 15%
15:00 +34°C° 0 mm 3 m/s 708 mmHg 15%
16:00 +34°C° 0 mm 4 m/s 708 mmHg 15%
17:00 +34°C° 0 mm 5 m/s 708 mmHg 15%
18:00 +32°C° 0 mm 4 m/s 708 mmHg 18%
19:00 +28°C° 0 mm 4 m/s 708 mmHg 21%
20:00 +26°C° 0 mm 3 m/s 709 mmHg 24%
21:00 +23°C° 0 mm 4 m/s 709 mmHg 30%
22:00 +21°C° 0 mm 4 m/s 709 mmHg 35%
23:00 +20°C° 0 mm 4 m/s 710 mmHg 40%

22 Junho, Terça-feira

Tempo Temperatura Precipitação Vento Pressão Humidade
00:00 +18°C° 0 mm 3 m/s 710 mmHg 43%
01:00 +17°C° 0 mm 2 m/s 710 mmHg 46%
02:00 +16°C° 0 mm 2 m/s 710 mmHg 48%
03:00 +16°C° 0 mm 2 m/s 710 mmHg 49%
04:00 +16°C° 0 mm 2 m/s 710 mmHg 50%
05:00 +16°C° 0 mm 2 m/s 711 mmHg 51%
06:00 +17°C° 0 mm 2 m/s 711 mmHg 48%
07:00 +19°C° 0 mm 2 m/s 712 mmHg 45%
08:00 +20°C° 0 mm 2 m/s 712 mmHg 42%
09:00 +23°C° 0.1 mm 2 m/s 712 mmHg 39%
10:00 +24°C° 0.1 mm 2 m/s 712 mmHg 35%
11:00 +26°C° 0.1 mm 2 m/s 712 mmHg 32%
12:00 +27°C° 0 mm 3 m/s 712 mmHg 30%
13:00 +28°C° 0 mm 4 m/s 711 mmHg 27%
14:00 +30°C° 0 mm 4 m/s 711 mmHg 25%
15:00 +29°C° 0 mm 5 m/s 711 mmHg 24%
16:00 +29°C° 0 mm 5 m/s 711 mmHg 23%
17:00 +28°C° 0 mm 6 m/s 711 mmHg 23%
18:00 +26°C° 0 mm 5 m/s 711 mmHg 26%
19:00 +23°C° 0 mm 4 m/s 711 mmHg 29%
20:00 +20°C° 0 mm 3 m/s 711 mmHg 32%
21:00 +19°C° 0 mm 2 m/s 711 mmHg 35%
22:00 +18°C° 0 mm 2 m/s 711 mmHg 38%
23:00 +16°C° 0 mm 1 m/s 711 mmHg 41%

23 Junho, Quarta-feira

Tempo Temperatura Precipitação Vento Pressão Humidade
00:00 +16°C° 0 mm 1 m/s 711 mmHg 42%
01:00 +15°C° 0 mm 1 m/s 711 mmHg 43%
02:00 +15°C° 0 mm 1 m/s 711 mmHg 44%
03:00 +15°C° 0 mm 1 m/s 711 mmHg 44%
04:00 +15°C° 0 mm 1 m/s 712 mmHg 43%
05:00 +16°C° 0 mm 1 m/s 712 mmHg 43%
06:00 +19°C° 0 mm 1 m/s 712 mmHg 37%
07:00 +21°C° 0 mm 1 m/s 712 mmHg 32%
08:00 +22°C° 0 mm 0 m/s 712 mmHg 26%
09:00 +25°C° 0 mm 1 m/s 712 mmHg 24%
10:00 +27°C° 0 mm 1 m/s 712 mmHg 22%
11:00 +29°C° 0 mm 2 m/s 711 mmHg 20%
12:00 +30°C° 0 mm 2 m/s 711 mmHg 19%
13:00 +31°C° 0 mm 3 m/s 711 mmHg 18%
14:00 +33°C° 0 mm 4 m/s 710 mmHg 17%
15:00 +33°C° 0 mm 4 m/s 710 mmHg 17%
16:00 +33°C° 0 mm 4 m/s 710 mmHg 17%
17:00 +33°C° 0 mm 5 m/s 710 mmHg 17%
18:00 +29°C° 0 mm 4 m/s 710 mmHg 20%
19:00 +26°C° 0 mm 3 m/s 710 mmHg 23%
20:00 +22°C° 0 mm 3 m/s 710 mmHg 26%
21:00 +21°C° 0 mm 2 m/s 710 mmHg 28%
22:00 +20°C° 0 mm 2 m/s 710 mmHg 31%
23:00 +19°C° 0 mm 1 m/s 710 mmHg 34%

24 Junho, Quinta-feira

Tempo Temperatura Precipitação Vento Pressão Humidade
00:00 +18°C° 0 mm 2 m/s 709 mmHg 34%
01:00 +18°C° 0 mm 2 m/s 709 mmHg 35%
02:00 +18°C° 0 mm 2 m/s 708 mmHg 35%
03:00 +18°C° 0 mm 2 m/s 708 mmHg 35%
04:00 +18°C° 0 mm 2 m/s 708 mmHg 35%
05:00 +18°C° 0 mm 2 m/s 708 mmHg 35%
06:00 +21°C° 0 mm 3 m/s 708 mmHg 30%
07:00 +25°C° 0 mm 4 m/s 709 mmHg 25%
08:00 +28°C° 0 mm 5 m/s 709 mmHg 21%
09:00 +29°C° 0 mm 6 m/s 709 mmHg 21%
10:00 +29°C° 0 mm 7 m/s 709 mmHg 22%
11:00 +31°C° 0 mm 8 m/s 709 mmHg 23%
12:00 +30°C° 0 mm 7 m/s 710 mmHg 27%
13:00 +29°C° 0 mm 7 m/s 710 mmHg 31%
14:00 +28°C° 0 mm 6 m/s 711 mmHg 35%
15:00 +27°C° 0 mm 6 m/s 711 mmHg 38%
16:00 +24°C° 0 mm 6 m/s 711 mmHg 40%
17:00 +23°C° 0 mm 5 m/s 711 mmHg 42%
18:00 +22°C° 0 mm 4 m/s 711 mmHg 42%
19:00 +21°C° 0 mm 4 m/s 711 mmHg 41%
20:00 +20°C° 0 mm 3 m/s 711 mmHg 40%
21:00 +19°C° 0 mm 3 m/s 711 mmHg 45%
22:00 +17°C° 0 mm 2 m/s 710 mmHg 50%
23:00 +16°C° 0 mm 2 m/s 710 mmHg 56%
Mostrar mais